User: anonymous   Login
Location: Fremont
(37.5480°N, 121.9880°W)
Time: 05:00:48
(UTC-08:00)
Language:

Cosmos 1844 Rocket - Orbit

View from above orbital plane
View from above orbital plane
View from above satellite
View from above satellite

Ground track
Ground track

The orbit data is extracted from the following two-line orbital elements,

1 17974U 87041B   16038.15848904 -.00000008  00000-0  19920-4 0  9999
2 17974  71.0061 234.8984 0011772  67.4308  77.2975 14.17194854486402
Epoch (UTC): 07 February 2016 03:48:13
Eccentricity: 0.0011772
inclination: 71.0061°
perigee height: 826 km
apogee height: 843 km
right ascension of ascending node: 234.8984°
argument of perigee: 67.4308°
revolutions per day: 14.17194854
mean anomaly at epoch: 77.2975°
orbit number at epoch: 48640

The dashed part of the orbit path shows where the satellite is in the earth's shadow,  

DLR